Location: Avon Lake
(41.5219°N, 93.5010°W)
Time: 07:57:37
(UTC+00:00)

BlueWalker 3 - Pass Details

Date: 09 December 2022
Orbit: 499 x 517 km, 53.2° (Epoch: 07 February)

Event Time Altitude Azimuth Distance (km) Brightness Sun altitude
Rises 01:22:02 0° 305° (NW) 2,621 6.3 -28.8°
Reaches altitude 10° 01:24:16 10° 301° (WNW) 1,728 5.3 -29.2°
Enters shadow 01:25:55 24° 294° (WNW) 1,100 4.1 -29.5°
